Change the Weather History Date:

Saturday, June 30, 2012

  Actual Average Record
Temperature  
Mean Temperature 74 °F -  
Max Temperature 88 °F 76 °F 88 °F (1955)
Min Temperature 62 °F 60 °F 48 °F (1956)
Cooling Degree Days 10    
Growing Degree Days 24 (Base 50)    
Moisture  
Dew Point 61 °F    
Average Humidity 63    
Maximum Humidity 87    
Minimum Humidity 35    
Precipitation  
Precipitation 0.00 in - - ()
Sea Level Pressure  
Sea Level Pressure 29.70 in    
Wind  
Wind Speed 7 mph (WSW)    
Max Wind Speed 17 mph    
Max Gust Speed -    
Visibility 10 miles    
Events      
Averages and records for this station are not official NWS values.
T = Trace of Precipitation, MM = Missing Value Source: NWS Daily Summary

Daily Weather History Graph

Daily Weather History Graph

Search for Another Location

Airport or City:

Trip Planner

Search our weather history database for the weather conditions in past years. The results will help you decide how hot, cold, wet, or windy it might be!

Date:

Astronomy

Jun. 30, 2012 Rise Set
Actual Time 5:10 AM EDT 8:19 PM EDT
Civil Twilight 4:36 AM EDT 8:53 PM EDT
Nautical Twilight 3:52 AM EDT 9:36 PM EDT
Astronomical Twilight 3:00 AM EDT 10:28 PM EDT
Moon 5:11 PM EDT (6/30) 2:04 AM EDT (6/30)
Length of Visible Light 16h 17m
Length of Day
15h 09m
Waxing Gibbous, 87% of the Moon is Illuminated
Jun 30
Waxing Gibbous
Jul 3
Full
Jul 10
Last Quarter
Jul 19
New
Jul 26
First Quarter

Hourly Weather History & Observations

Time (EDT) Temp. Heat Index Dew Point Humidity Pressure Visibility Wind Dir Wind Speed Gust Speed Precip Events Conditions
12:56 AM 69.1 °F - 62.1 °F 78% 29.64 in 10.0 mi NW 4.6 mph - N/A   Clear
1:56 AM 69.1 °F - 55.9 °F 63% 29.64 in 10.0 mi Calm Calm - N/A   Clear
2:56 AM 64.0 °F - 57.9 °F 80% 29.65 in 10.0 mi Calm Calm - N/A   Clear
3:56 AM 62.1 °F - 57.0 °F 84% 29.65 in 10.0 mi Calm Calm - N/A   Clear
4:56 AM 64.9 °F - 60.1 °F 84% 29.67 in 10.0 mi WSW 6.9 mph - N/A   Clear
5:56 AM 69.1 °F - 57.9 °F 68% 29.69 in 10.0 mi WSW 6.9 mph - N/A   Clear
7:56 AM 75.0 °F - 61.0 °F 62% 29.72 in 10.0 mi WSW 11.5 mph - N/A   Clear
8:56 AM 79.0 °F - 62.1 °F 56% 29.71 in 10.0 mi WSW 12.7 mph - N/A   Clear
9:56 AM 82.9 °F 82.8 °F 59.0 °F 44% 29.70 in 10.0 mi West 10.4 mph - N/A   Clear
10:56 AM 84.0 °F 83.8 °F 59.0 °F 43% 29.69 in 10.0 mi West 8.1 mph - N/A   Clear
11:56 AM 87.1 °F 85.7 °F 55.9 °F 35% 29.69 in 10.0 mi West 9.2 mph - N/A   Clear
12:56 PM 86.0 °F 86.1 °F 61.0 °F 43% 29.70 in 10.0 mi SW 11.5 mph - N/A   Clear
1:56 PM 82.9 °F 83.7 °F 62.1 °F 49% 29.70 in 10.0 mi SSW 11.5 mph - N/A   Clear
2:56 PM 84.0 °F 84.9 °F 63.0 °F 49% 29.70 in 10.0 mi SSW 15.0 mph - N/A   Clear
3:56 PM 82.9 °F 83.7 °F 62.1 °F 49% 29.70 in 10.0 mi SW 16.1 mph - N/A   Clear
4:56 PM 82.0 °F 83.1 °F 63.0 °F 52% 29.70 in 10.0 mi SW 15.0 mph - N/A   Clear
5:56 PM 79.0 °F - 62.1 °F 56% 29.70 in 10.0 mi SW 17.3 mph - N/A   Clear
6:56 PM 78.1 °F - 64.9 °F 64% 29.71 in 10.0 mi SW 12.7 mph - N/A   Clear
7:56 PM 73.9 °F - 66.0 °F 76% 29.73 in 10.0 mi SW 11.5 mph - N/A   Clear
8:56 PM 75.9 °F - 63.0 °F 64% 29.73 in 10.0 mi WSW 10.4 mph - N/A   Clear
9:56 PM 73.0 °F - 63.0 °F 71% 29.74 in 10.0 mi SW 9.2 mph - N/A   Clear
10:56 PM 71.1 °F - 66.0 °F 84% 29.74 in 10.0 mi SW 8.1 mph - N/A   Clear
11:56 PM 71.1 °F - 66.9 °F 87% 29.74 in 9.0 mi SW 8.1 mph - N/A   Clear